FLOCK 4A-19 (44090 NORAD) Tracking and Keplerian Element Data

This shows tracking and keplerian element data for the satellite.

Feedback or suggestion? Click here.




ElementValue
Catalog44090
NameFLOCK 4A-19
Epoch Orbit309
Epoch Day111.72526978
Epoch Year2019
RAAN172.1091
Inclination97.4625
Eccentricity0.0013278
Argument of Perigee207.8574
Mean Anonmoly152.1953
Mean Motion15.21571389
Decay Rate7.74E-06
L11 44090U 19018N 19111.72526978 .00000774 00000-0 37399-4 0 9998
L22 44090 97.4625 172.1091 0013278 207.8574 152.1953 15.21571389 3097

Live tracking and technical data element details for FLOCK 4A-19 (NORAD 44090). FLOCK 4A-19 can be tracked NOW for your location showing map with azimuth and elevation plus other details from your city location.

Track the satellite on the map from your city or location and see movement details for azimuth, elevation, latitude, longitude, range, height, and movement on the map or in text.







IsCatalogInMostPopularTable: catalog: 44090, numindb: 8
Update: records affected: 1



GetName: 44090 FLOCK 4A-19

Hit Count: updated at: Tue, 23 Apr 2019 02:18:48 GMT